AZU2806 SBKP-SBPJ

Flight info

Callsign AZU2806
Flight time 1h 52m
Altitude 36000
Route ISMOB UZ26 SEKPO/N0440F380 UZ26 LIBEC
Aircraft A320/M-SDE3FGHIRWY/LB1

Departure

Time 2026-05-05 19:09
Airport Viracopos International Airport (SBKP)

Arrival

Time 2026-05-05 21:01
Airport Brigadeiro Lysias Rodrigues Airport (SBPJ)
Time Latitude Longitude Altitude Speed Heading
2026-05-05 19:06 -23.00226 -47.15016 2159 ft 0 kts 330°
2026-05-05 19:06 -23.00210 -47.15022 2165 ft 9 kts 345°
2026-05-05 19:06 -23.00128 -47.14963 2164 ft 17 kts 41°
2026-05-05 19:07 -23.00039 -47.14878 2165 ft 18 kts 41°
2026-05-05 19:07 -22.99943 -47.14786 2161 ft 15 kts 43°
2026-05-05 19:07 -22.99939 -47.14781 2162 ft 0 kts 45°
2026-05-05 19:07 -22.99930 -47.14771 2164 ft 8 kts 45°
2026-05-05 19:08 -22.99871 -47.14692 2167 ft 15 kts 77°
2026-05-05 19:08 -22.99896 -47.14629 2163 ft 0 kts 128°
2026-05-05 19:08 -22.99902 -47.14620 2164 ft 13 kts 128°
2026-05-05 19:08 -23.00133 -47.14296 2165 ft 91 kts 128°
2026-05-05 19:09 -23.00651 -47.13571 2165 ft 150 kts 128°
2026-05-05 19:09 -23.01368 -47.12571 2271 ft 186 kts 128°
2026-05-05 19:09 -23.01948 -47.11326 2896 ft 188 kts 96°
2026-05-05 19:09 -23.01896 -47.09932 3464 ft 190 kts 83°
2026-05-05 19:10 -23.01660 -47.08471 3657 ft 205 kts 79°
2026-05-05 19:10 -23.01373 -47.06859 3765 ft 225 kts 80°
2026-05-05 19:10 -23.01084 -47.05138 3886 ft 246 kts 81°
2026-05-05 19:10 -23.00770 -47.03237 4024 ft 265 kts 76°
2026-05-05 19:11 -22.99906 -47.01453 4377 ft 273 kts 47°
2026-05-05 19:11 -22.98436 -47.00135 4861 ft 276 kts 37°
2026-05-05 19:11 -22.96892 -46.98883 5378 ft 278 kts 37°
2026-05-05 19:11 -22.95339 -46.97626 5945 ft 279 kts 37°
2026-05-05 19:12 -22.93780 -46.96360 6451 ft 280 kts 38°
2026-05-05 19:12 -22.92153 -46.95190 6891 ft 283 kts 24°
2026-05-05 19:12 -22.90230 -46.94722 7318 ft 287 kts
2026-05-05 19:12 -22.88259 -46.95041 7787 ft 289 kts 341°
2026-05-05 19:13 -22.86454 -46.96017 8243 ft 291 kts 331°
2026-05-05 19:13 -22.84687 -46.97106 8719 ft 293 kts 331°
2026-05-05 19:13 -22.82909 -46.98205 9170 ft 295 kts 331°
2026-05-05 19:13 -22.81118 -46.99310 9605 ft 297 kts 332°
2026-05-05 19:14 -22.79312 -47.00423 10039 ft 299 kts 332°
2026-05-05 19:14 -22.77488 -47.01546 10327 ft 306 kts 332°
2026-05-05 19:14 -22.75592 -47.02691 10440 ft 317 kts 333°
2026-05-05 19:14 -22.73604 -47.03814 10554 ft 326 kts 334°
2026-05-05 19:15 -22.71550 -47.04930 10660 ft 334 kts 335°
2026-05-05 19:15 -22.69453 -47.06054 10840 ft 338 kts 335°
2026-05-05 19:15 -22.67341 -47.07189 11068 ft 340 kts 334°
2026-05-05 19:15 -22.65158 -47.08165 11283 ft 340 kts 345°
2026-05-05 19:16 -22.62839 -47.08658 11522 ft 340 kts 354°
2026-05-05 19:16 -22.60488 -47.08960 11749 ft 341 kts 354°
2026-05-05 19:16 -22.58129 -47.09268 12015 ft 340 kts 354°
2026-05-05 19:16 -22.55857 -47.09574 12771 ft 317 kts 354°
2026-05-05 19:17 -22.53717 -47.09864 13225 ft 306 kts 354°
2026-05-05 19:17 -22.51578 -47.10148 13470 ft 316 kts 355°
2026-05-05 19:17 -22.49315 -47.10440 13638 ft 339 kts 355°
2026-05-05 19:17 -22.46913 -47.10750 14023 ft 353 kts 354°
2026-05-05 19:18 -22.44460 -47.11073 14577 ft 358 kts 354°
2026-05-05 19:18 -22.41972 -47.11403 15160 ft 363 kts 354°
2026-05-05 19:18 -22.39453 -47.11740 15729 ft 367 kts 353°
2026-05-05 19:18 -22.36906 -47.12081 16296 ft 371 kts 353°
2026-05-05 19:19 -22.34328 -47.12422 16868 ft 375 kts 353°
2026-05-05 19:19 -22.31725 -47.12763 17425 ft 379 kts 353°
2026-05-05 19:19 -22.29089 -47.13105 17968 ft 383 kts 353°
2026-05-05 19:19 -22.26425 -47.13452 18495 ft 388 kts 352°
2026-05-05 19:20 -22.23730 -47.13804 18980 ft 392 kts 352°
2026-05-05 19:20 -22.21016 -47.14161 19465 ft 394 kts 352°
2026-05-05 19:20 -22.18283 -47.14523 19981 ft 397 kts 352°
2026-05-05 19:20 -22.15530 -47.14886 20473 ft 400 kts 352°
2026-05-05 19:21 -22.12758 -47.15251 20966 ft 403 kts 352°
2026-05-05 19:21 -22.09969 -47.15621 21462 ft 405 kts 352°
2026-05-05 19:21 -22.07158 -47.15993 21948 ft 408 kts 352°
2026-05-05 19:21 -22.04329 -47.16369 22410 ft 411 kts 352°
2026-05-05 19:22 -22.01478 -47.16744 22880 ft 414 kts 352°
2026-05-05 19:22 -21.98609 -47.17120 23366 ft 417 kts 352°
2026-05-05 19:22 -21.95720 -47.17497 23818 ft 419 kts 352°
2026-05-05 19:22 -21.92814 -47.17875 24206 ft 422 kts 352°
2026-05-05 19:23 -21.89893 -47.18255 24603 ft 424 kts 352°
2026-05-05 19:23 -21.86960 -47.18642 25003 ft 426 kts 351°
2026-05-05 19:23 -21.84009 -47.19031 25373 ft 429 kts 351°
2026-05-05 19:23 -21.81040 -47.19419 25739 ft 431 kts 351°
2026-05-05 19:24 -21.78054 -47.19810 26093 ft 434 kts 351°
2026-05-05 19:24 -21.75046 -47.20205 26466 ft 436 kts 351°
2026-05-05 19:24 -21.72027 -47.20601 26829 ft 439 kts 351°
2026-05-05 19:24 -21.68985 -47.21002 27190 ft 441 kts 351°
2026-05-05 19:25 -21.65928 -47.21402 27545 ft 444 kts 351°
2026-05-05 19:25 -21.62856 -47.21805 27898 ft 446 kts 350°
2026-05-05 19:25 -21.59766 -47.22211 28248 ft 449 kts 350°
2026-05-05 19:25 -21.56653 -47.22618 28594 ft 451 kts 350°
2026-05-05 19:26 -21.53527 -47.23029 28905 ft 454 kts 350°
2026-05-05 19:26 -21.50388 -47.23444 29239 ft 456 kts 350°
2026-05-05 19:26 -21.47226 -47.23863 29572 ft 459 kts 350°
2026-05-05 19:26 -21.44051 -47.24281 29908 ft 461 kts 350°
2026-05-05 19:27 -21.40857 -47.24699 30225 ft 464 kts 350°
2026-05-05 19:27 -21.37648 -47.25120 30494 ft 466 kts 350°
2026-05-05 19:27 -21.34423 -47.25553 30763 ft 468 kts 349°
2026-05-05 19:27 -21.31196 -47.26042 31032 ft 469 kts 348°
2026-05-05 19:28 -21.27961 -47.26584 31298 ft 471 kts 347°
2026-05-05 19:28 -21.25815 -47.26964 31471 ft 472 kts 347°
2026-05-05 19:28 -21.22581 -47.27545 31823 ft 471 kts 347°
2026-05-05 19:28 -21.19345 -47.28119 32203 ft 471 kts 347°
2026-05-05 19:29 -21.16116 -47.28675 32565 ft 470 kts 347°
2026-05-05 19:29 -21.12882 -47.29214 32885 ft 470 kts 347°
2026-05-05 19:29 -21.09643 -47.29745 33207 ft 471 kts 347°
2026-05-05 19:29 -21.06408 -47.30273 33556 ft 470 kts 347°
2026-05-05 19:30 -21.03176 -47.30806 33916 ft 470 kts 346°
2026-05-05 19:30 -20.99949 -47.31344 34248 ft 469 kts 346°
2026-05-05 19:30 -20.96725 -47.31884 34514 ft 469 kts 346°
2026-05-05 19:30 -20.93493 -47.32422 34748 ft 470 kts 346°
2026-05-05 19:31 -20.90258 -47.32960 34954 ft 472 kts 346°
2026-05-05 19:31 -20.87011 -47.33503 35168 ft 473 kts 346°
2026-05-05 19:31 -20.83756 -47.34045 35385 ft 474 kts 346°
2026-05-05 19:31 -20.80489 -47.34585 35608 ft 475 kts 346°
2026-05-05 19:32 -20.77221 -47.35125 35820 ft 476 kts 346°
2026-05-05 19:32 -20.73949 -47.35665 36028 ft 477 kts 346°
2026-05-05 19:32 -20.67401 -47.36749 36146 ft 474 kts 345°
2026-05-05 19:33 -20.60891 -47.37824 36153 ft 473 kts 345°
2026-05-05 19:33 -20.54377 -47.38887 36145 ft 474 kts 346°
2026-05-05 19:34 -20.47883 -47.39859 36146 ft 475 kts 346°
2026-05-05 19:35 -20.38054 -47.41298 36143 ft 475 kts 346°
2026-05-05 19:35 -20.31503 -47.42286 36140 ft 476 kts 346°
2026-05-05 19:36 -20.24948 -47.43281 36137 ft 476 kts 346°
2026-05-05 19:36 -20.18394 -47.44267 36129 ft 476 kts 346°
2026-05-05 19:37 -20.11837 -47.45252 36124 ft 476 kts 346°
2026-05-05 19:37 -20.05279 -47.46234 36125 ft 476 kts 346°
2026-05-05 19:38 -19.98721 -47.47214 36126 ft 476 kts 346°
2026-05-05 19:38 -19.92157 -47.48200 36123 ft 477 kts 346°
2026-05-05 19:39 -19.85570 -47.49187 36136 ft 478 kts 346°
2026-05-05 19:39 -19.78982 -47.50171 36141 ft 478 kts 346°
2026-05-05 19:40 -19.72394 -47.51149 36130 ft 478 kts 346°
2026-05-05 19:40 -19.65806 -47.52114 36135 ft 478 kts 346°
2026-05-05 19:41 -19.59216 -47.53077 36135 ft 478 kts 346°
2026-05-05 19:41 -19.52625 -47.54040 36135 ft 478 kts 346°
2026-05-05 19:42 -19.46029 -47.55000 36131 ft 479 kts 346°
2026-05-05 19:42 -19.39427 -47.55960 36130 ft 479 kts 346°
2026-05-05 19:43 -19.32820 -47.56923 36134 ft 479 kts 346°
2026-05-05 19:43 -19.26213 -47.57893 36138 ft 479 kts 346°
2026-05-05 19:44 -19.19605 -47.58856 36137 ft 479 kts 346°
2026-05-05 19:44 -19.12998 -47.59815 36135 ft 480 kts 346°
2026-05-05 19:45 -19.06387 -47.60778 36138 ft 480 kts 346°
2026-05-05 19:45 -18.99770 -47.61728 36128 ft 480 kts 346°
2026-05-05 19:46 -18.93137 -47.62642 36136 ft 481 kts 347°
2026-05-05 19:46 -18.86504 -47.63551 36135 ft 481 kts 347°
2026-05-05 19:47 -18.79869 -47.64473 36130 ft 481 kts 346°
2026-05-05 19:47 -18.73233 -47.65403 36123 ft 481 kts 346°
2026-05-05 19:48 -18.66594 -47.66328 36127 ft 481 kts 346°
2026-05-05 19:48 -18.59946 -47.67244 36128 ft 482 kts 346°
2026-05-05 19:49 -18.53310 -47.68199 36130 ft 481 kts 346°
2026-05-05 19:49 -18.46686 -47.69191 36118 ft 481 kts 346°
2026-05-05 19:50 -18.40095 -47.70171 36120 ft 482 kts 346°
2026-05-05 19:50 -18.33454 -47.71139 36122 ft 482 kts 346°
2026-05-05 19:51 -18.26817 -47.72127 36110 ft 481 kts 345°
2026-05-05 19:51 -18.20214 -47.73234 36111 ft 481 kts 344°
2026-05-05 19:52 -18.13614 -47.74383 36117 ft 481 kts 344°
2026-05-05 19:52 -18.07006 -47.75515 36121 ft 481 kts 345°
2026-05-05 19:53 -18.00392 -47.76621 36114 ft 481 kts 345°
2026-05-05 19:53 -17.93776 -47.77714 36119 ft 481 kts 345°
2026-05-05 19:54 -17.87160 -47.78811 36124 ft 481 kts 345°
2026-05-05 19:54 -17.80551 -47.79920 36126 ft 481 kts 345°
2026-05-05 19:55 -17.73939 -47.81028 36108 ft 481 kts 345°
2026-05-05 19:55 -17.67313 -47.82128 36110 ft 482 kts 345°
2026-05-05 19:56 -17.60682 -47.83226 36119 ft 482 kts 345°
2026-05-05 19:56 -17.54061 -47.84334 36109 ft 482 kts 345°
2026-05-05 19:57 -17.47433 -47.85442 36115 ft 482 kts 345°
2026-05-05 19:57 -17.40802 -47.86548 36118 ft 483 kts 345°
2026-05-05 19:58 -17.34164 -47.87648 36124 ft 483 kts 345°
2026-05-05 19:58 -17.27531 -47.88745 36106 ft 482 kts 345°
2026-05-05 19:59 -17.20906 -47.89844 36120 ft 482 kts 345°
2026-05-05 19:59 -17.14278 -47.90951 36118 ft 482 kts 345°
2026-05-05 20:00 -17.07645 -47.92050 36126 ft 483 kts 345°
2026-05-05 20:00 -17.01049 -47.93142 36110 ft 483 kts 345°
2026-05-05 20:01 -16.94417 -47.94241 36117 ft 483 kts 345°
2026-05-05 20:01 -16.87790 -47.95332 36114 ft 482 kts 345°
2026-05-05 20:02 -16.81161 -47.96421 36121 ft 482 kts 345°
2026-05-05 20:02 -16.74534 -47.97518 36115 ft 482 kts 345°
2026-05-05 20:03 -16.67905 -47.98618 36124 ft 482 kts 345°
2026-05-05 20:03 -16.61273 -47.99705 36121 ft 482 kts 345°
2026-05-05 20:04 -16.54641 -48.00786 36106 ft 482 kts 345°
2026-05-05 20:04 -16.48014 -48.01877 36117 ft 482 kts 345°
2026-05-05 20:05 -16.41394 -48.02972 36120 ft 481 kts 345°
2026-05-05 20:05 -16.34777 -48.04062 36121 ft 481 kts 345°
2026-05-05 20:06 -16.28164 -48.05150 36108 ft 481 kts 345°
2026-05-05 20:06 -16.21563 -48.06228 36118 ft 480 kts 345°
2026-05-05 20:07 -16.14961 -48.07304 36147 ft 480 kts 345°
2026-05-05 20:07 -16.08360 -48.08380 36179 ft 480 kts 345°
2026-05-05 20:08 -16.01770 -48.09466 36194 ft 479 kts 346°
2026-05-05 20:08 -15.95190 -48.10547 36219 ft 478 kts 346°
2026-05-05 20:09 -15.88621 -48.11620 36228 ft 478 kts 346°
2026-05-05 20:09 -15.82058 -48.12691 36218 ft 478 kts 346°
2026-05-05 20:10 -15.75493 -48.13765 36194 ft 477 kts 346°
2026-05-05 20:10 -15.68939 -48.14836 36169 ft 476 kts 346°
2026-05-05 20:11 -15.62395 -48.15904 36135 ft 476 kts 346°
2026-05-05 20:11 -15.55847 -48.16970 36119 ft 476 kts 346°
2026-05-05 20:12 -15.49301 -48.18012 36111 ft 477 kts 349°
2026-05-05 20:12 -15.42644 -48.18304 36107 ft 479 kts 354°
2026-05-05 20:13 -15.36023 -48.18504 36113 ft 479 kts 354°
2026-05-05 20:13 -15.30444 -48.18678 36106 ft 479 kts 354°
2026-05-05 20:14 -15.23792 -48.18890 36099 ft 478 kts 354°
2026-05-05 20:14 -15.17148 -48.19101 36099 ft 477 kts 354°
2026-05-05 20:15 -15.10514 -48.19311 36100 ft 477 kts 354°
2026-05-05 20:15 -15.03884 -48.19514 36097 ft 476 kts 354°
2026-05-05 20:16 -14.97261 -48.19722 36092 ft 476 kts 354°
2026-05-05 20:16 -14.90647 -48.19933 36091 ft 475 kts 354°
2026-05-05 20:17 -14.84039 -48.20124 36090 ft 475 kts 354°
2026-05-05 20:17 -14.77434 -48.20298 36086 ft 475 kts 354°
2026-05-05 20:18 -14.70872 -48.20477 36078 ft 475 kts 354°
2026-05-05 20:18 -14.64270 -48.20661 36075 ft 475 kts 354°
2026-05-05 20:19 -14.57663 -48.20850 36069 ft 475 kts 354°
2026-05-05 20:19 -14.51060 -48.21036 36070 ft 475 kts 354°
2026-05-05 20:20 -14.44452 -48.21220 36061 ft 475 kts 354°
2026-05-05 20:20 -14.37849 -48.21401 36063 ft 474 kts 354°
2026-05-05 20:21 -14.31250 -48.21590 36068 ft 474 kts 354°
2026-05-05 20:21 -14.24655 -48.21777 36060 ft 474 kts 354°
2026-05-05 20:22 -14.18059 -48.21961 36060 ft 474 kts 354°
2026-05-05 20:22 -14.11469 -48.22146 36054 ft 474 kts 354°
2026-05-05 20:23 -14.04881 -48.22326 36051 ft 473 kts 354°
2026-05-05 20:23 -13.98298 -48.22507 36050 ft 473 kts 354°
2026-05-05 20:24 -13.91722 -48.22686 36041 ft 472 kts 354°
2026-05-05 20:24 -13.85154 -48.22875 36040 ft 472 kts 354°
2026-05-05 20:25 -13.78595 -48.23059 36043 ft 472 kts 355°
2026-05-05 20:25 -13.72037 -48.23242 36042 ft 471 kts 355°
2026-05-05 20:26 -13.65479 -48.23426 36043 ft 471 kts 355°
2026-05-05 20:26 -13.58933 -48.23604 36047 ft 470 kts 355°
2026-05-05 20:27 -13.52396 -48.23777 36041 ft 470 kts 355°
2026-05-05 20:27 -13.45860 -48.23962 36041 ft 469 kts 355°
2026-05-05 20:28 -13.39328 -48.24148 36034 ft 469 kts 355°
2026-05-05 20:28 -13.32801 -48.24325 36036 ft 469 kts 355°
2026-05-05 20:29 -13.26285 -48.24503 36031 ft 468 kts 355°
2026-05-05 20:29 -13.19769 -48.24684 36027 ft 468 kts 355°
2026-05-05 20:30 -13.13263 -48.24863 36015 ft 468 kts 355°
2026-05-05 20:30 -13.06800 -48.25039 36015 ft 468 kts 355°
2026-05-05 20:31 -13.00290 -48.25215 36022 ft 468 kts 355°
2026-05-05 20:31 -12.93775 -48.25402 36020 ft 468 kts 355°
2026-05-05 20:32 -12.87269 -48.25582 36014 ft 468 kts 355°
2026-05-05 20:32 -12.80762 -48.25757 36019 ft 468 kts 355°
2026-05-05 20:33 -12.74256 -48.25934 36013 ft 467 kts 355°
2026-05-05 20:33 -12.67757 -48.26105 36015 ft 467 kts 355°
2026-05-05 20:34 -12.61257 -48.26283 36002 ft 467 kts 355°
2026-05-05 20:34 -12.54760 -48.26467 36006 ft 467 kts 355°
2026-05-05 20:35 -12.48274 -48.26651 36011 ft 466 kts 355°
2026-05-05 20:35 -12.41790 -48.26828 36010 ft 466 kts 355°
2026-05-05 20:36 -12.35313 -48.27008 36009 ft 466 kts 355°
2026-05-05 20:36 -12.28836 -48.27184 35990 ft 466 kts 355°
2026-05-05 20:37 -12.22341 -48.27356 35977 ft 468 kts 355°
2026-05-05 20:37 -12.15821 -48.27539 35977 ft 469 kts 355°
2026-05-05 20:38 -12.09285 -48.27718 35980 ft 470 kts 355°
2026-05-05 20:38 -12.02747 -48.27887 35988 ft 470 kts 355°
2026-05-05 20:39 -11.96221 -48.28054 35999 ft 469 kts 355°
2026-05-05 20:39 -11.89699 -48.28233 36001 ft 469 kts 355°
2026-05-05 20:40 -11.83180 -48.28412 36002 ft 468 kts 355°
2026-05-05 20:40 -11.76670 -48.28587 36004 ft 467 kts 356°
2026-05-05 20:41 -11.70174 -48.28763 36006 ft 466 kts 356°
2026-05-05 20:41 -11.63690 -48.28937 36005 ft 466 kts 356°
2026-05-05 20:42 -11.57217 -48.29117 35989 ft 463 kts 356°
2026-05-05 20:42 -11.54012 -48.29204 35403 ft 460 kts 356°
2026-05-05 20:42 -11.50807 -48.29292 34290 ft 462 kts 356°
2026-05-05 20:42 -11.47577 -48.29381 33017 ft 466 kts 356°
2026-05-05 20:43 -11.44323 -48.29472 31633 ft 471 kts 356°
2026-05-05 20:43 -11.41025 -48.29567 30435 ft 474 kts 357°
2026-05-05 20:43 -11.37726 -48.29658 29327 ft 472 kts 357°
2026-05-05 20:43 -11.34463 -48.29748 28328 ft 466 kts 358°
2026-05-05 20:44 -11.31297 -48.29831 27454 ft 457 kts 359°
2026-05-05 20:44 -11.28168 -48.29576 26616 ft 447 kts 11°
2026-05-05 20:44 -11.25117 -48.29060 25168 ft 449 kts
2026-05-05 20:44 -11.21930 -48.29334 23418 ft 460 kts 345°
2026-05-05 20:45 -11.15781 -48.31231 19619 ft 471 kts 343°
2026-05-05 20:45 -11.12627 -48.32206 18546 ft 473 kts 344°
2026-05-05 20:45 -11.09540 -48.33151 17827 ft 452 kts 344°
2026-05-05 20:46 -11.06588 -48.34051 17080 ft 436 kts 345°
2026-05-05 20:46 -11.03711 -48.34929 16345 ft 428 kts 345°
2026-05-05 20:46 -11.00882 -48.35795 15628 ft 421 kts 345°
2026-05-05 20:46 -10.98090 -48.36650 15162 ft 417 kts 345°
2026-05-05 20:47 -10.95311 -48.37500 14988 ft 418 kts 345°
2026-05-05 20:47 -10.92550 -48.38344 14963 ft 404 kts 345°
2026-05-05 20:47 -10.89916 -48.39152 14977 ft 382 kts 345°
2026-05-05 20:47 -10.87433 -48.39914 14981 ft 368 kts 345°
2026-05-05 20:48 -10.84989 -48.40659 14980 ft 366 kts 345°
2026-05-05 20:48 -10.82554 -48.41399 14972 ft 364 kts 345°
2026-05-05 20:48 -10.80131 -48.42136 14973 ft 363 kts 345°
2026-05-05 20:48 -10.77713 -48.42875 14977 ft 363 kts 345°
2026-05-05 20:49 -10.75295 -48.43615 14980 ft 363 kts 345°
2026-05-05 20:49 -10.72876 -48.44356 14928 ft 361 kts 345°
2026-05-05 20:49 -10.70471 -48.45091 14435 ft 362 kts 346°
2026-05-05 20:49 -10.68056 -48.45827 13883 ft 364 kts 346°
2026-05-05 20:50 -10.65617 -48.46568 13233 ft 367 kts 346°
2026-05-05 20:50 -10.64002 -48.47061 12798 ft 362 kts 346°
2026-05-05 20:50 -10.60847 -48.48030 11970 ft 347 kts 346°
2026-05-05 20:50 -10.58571 -48.48730 11373 ft 337 kts 346°
2026-05-05 20:51 -10.56358 -48.49409 10792 ft 328 kts 345°
2026-05-05 20:51 -10.54191 -48.50072 10220 ft 325 kts 345°
2026-05-05 20:51 -10.52004 -48.50736 9625 ft 330 kts 345°
2026-05-05 20:51 -10.49788 -48.51406 8992 ft 334 kts 345°
2026-05-05 20:52 -10.47589 -48.52074 8361 ft 325 kts 345°
2026-05-05 20:52 -10.45457 -48.52724 7756 ft 316 kts 345°
2026-05-05 20:52 -10.43377 -48.53359 7160 ft 308 kts 345°
2026-05-05 20:52 -10.41343 -48.53978 6575 ft 302 kts 345°
2026-05-05 20:53 -10.39355 -48.54586 5970 ft 296 kts 345°
2026-05-05 20:53 -10.37400 -48.55183 5364 ft 291 kts 345°
2026-05-05 20:53 -10.35480 -48.55768 4770 ft 286 kts 345°
2026-05-05 20:53 -10.33591 -48.56343 4189 ft 281 kts 345°
2026-05-05 20:54 -10.31785 -48.56892 4027 ft 260 kts 345°
2026-05-05 20:54 -10.30098 -48.57407 4002 ft 250 kts 345°
2026-05-05 20:54 -10.28429 -48.57915 4005 ft 251 kts 345°
2026-05-05 20:54 -10.26734 -48.58296 3974 ft 248 kts
2026-05-05 20:55 -10.25094 -48.57961 3747 ft 237 kts 30°
2026-05-05 20:55 -10.23839 -48.56982 3636 ft 222 kts 54°
2026-05-05 20:55 -10.22940 -48.55756 3542 ft 212 kts 57°
2026-05-05 20:55 -10.22083 -48.54579 3497 ft 204 kts 57°
2026-05-05 20:56 -10.21248 -48.53436 3518 ft 196 kts 57°
2026-05-05 20:56 -10.20470 -48.52378 3508 ft 178 kts 57°
2026-05-05 20:56 -10.19897 -48.51284 3507 ft 175 kts 80°
2026-05-05 20:56 -10.19879 -48.50132 3497 ft 155 kts 106°
2026-05-05 20:57 -10.20304 -48.49176 3507 ft 145 kts 126°
2026-05-05 20:57 -10.20869 -48.48332 3502 ft 143 kts 125°
2026-05-05 20:57 -10.21234 -48.47779 3487 ft 141 kts 124°
2026-05-05 20:57 -10.21774 -48.46957 3154 ft 142 kts 125°
2026-05-05 20:58 -10.22306 -48.46145 2871 ft 135 kts 125°
2026-05-05 20:58 -10.22809 -48.45377 2539 ft 133 kts 126°
2026-05-05 20:58 -10.23320 -48.44599 2313 ft 132 kts 127°
2026-05-05 20:58 -10.23842 -48.43823 2244 ft 134 kts 127°
2026-05-05 20:59 -10.24372 -48.43037 2176 ft 136 kts 126°
2026-05-05 20:59 -10.24917 -48.42245 2076 ft 137 kts 124°
2026-05-05 20:59 -10.25433 -48.41430 1955 ft 138 kts 123°
2026-05-05 20:59 -10.25939 -48.40604 1685 ft 137 kts 123°
2026-05-05 21:00 -10.26450 -48.39793 1476 ft 137 kts 126°
2026-05-05 21:00 -10.26998 -48.39004 1281 ft 136 kts 123°
2026-05-05 21:00 -10.27504 -48.38193 1147 ft 136 kts 123°
2026-05-05 21:00 -10.28038 -48.37397 987 ft 136 kts 123°
2026-05-05 21:01 -10.28561 -48.36601 782 ft 135 kts 124°
2026-05-05 21:01 -10.29024 -48.35898 748 ft 80 kts 123°
2026-05-05 21:01 -10.29161 -48.35715 749 ft 14 kts 169°
2026-05-05 21:01 -10.29230 -48.35753 747 ft 10 kts 212°
2026-05-05 21:02 -10.29248 -48.35765 748 ft 0 kts 213°
2026-05-05 21:06 -10.29257 -48.35771 731 ft 6 kts 213°
2026-05-05 21:06 -10.29324 -48.35813 747 ft 12 kts 206°
2026-05-05 21:06 -10.29388 -48.35769 748 ft 13 kts 124°
2026-05-05 21:07 -10.29430 -48.35751 749 ft 7 kts 222°
2026-05-05 21:07 -10.29463 -48.35775 745 ft 0 kts 215°
2026-05-05 21:07 -10.29463 -48.35776 745 ft 0 kts 215°